Weather reports worldwide

Advertisment
Banjarmasin/Syamsudin Noor, Indonesia (96685): temperature & dewpoint: 15.05.2019 19:00:00 - 21.05.2019 19:00:00 (WITA)Banjarmasin/Syamsudin Noor, Indonesia (96685): wind speed: 15.05.2019 19:00:00 - 21.05.2019 19:00:00 (WITA)Banjarmasin/Syamsudin Noor, Indonesia (96685): wind direction: 15.05.2019 19:00:00 - 21.05.2019 19:00:00 (WITA)Banjarmasin/Syamsudin Noor, Indonesia (96685): reduced air pressure: 15.05.2019 19:00:00 - 21.05.2019 19:00:00 (WITA)Banjarmasin/Syamsudin Noor, Indonesia (96685): visibility: 15.05.2019 19:00:00 - 21.05.2019 19:00:00 (WITA)
Date & Time tt [°C] td [°C] ff [km/h] ff [kn] dd ppp [hPa] vv [km]
21.05.2019 19:00:00 29,0 24,0 11 6 E - 10
21.05.2019 18:00:00 30,0 24,0 16 9 E - 10
21.05.2019 17:00:00 31,6 24,9 11 6 E 1007,8 10
21.05.2019 16:00:00 33,0 26,0 21 11 SSE - 4,0
21.05.2019 15:00:00 33,0 24,0 11 6 SSE - 10
21.05.2019 14:00:00 33,2 24,6 13 7 SE 1008,8 10
21.05.2019 13:00:00 33,0 24,0 9 5 SSW - 10
21.05.2019 12:00:00 34,0 24,0 8 4 ESE - 10
21.05.2019 11:00:00 31,8 24,5 9 5 SE 1011,5 10
21.05.2019 10:00:00 30,0 25,0 8 4 SE - 10
21.05.2019 09:00:00 29,0 25,0 5 3 SSE - 10
21.05.2019 08:00:00 27,4 24,7 8 4 SE 1011,7 10
21.05.2019 07:00:00 26,0 24,0 9 5 E - 5
21.05.2019 06:00:00 26,0 24,0 9 5 E - 9
21.05.2019 05:00:00 25,8 23,9 5 3 SE 1009,9 10
21.05.2019 04:00:00 25,0 24,0 5 3 SSE - 8
21.05.2019 03:00:00 25,0 25,0 11 6 ESE - 9
21.05.2019 02:00:00 26,5 24,0 4 2 SE 1009,8 8
21.05.2019 01:00:00 25,0 25,0 11 6 E - 5
21.05.2019 00:00:00 26,0 25,0 9 5 E - 9
20.05.2019 23:00:00 27,2 24,7 4 2 - 1010,7 8
20.05.2019 22:00:00 28,0 25,0 5 3 SSE - 9
20.05.2019 21:00:00 28,0 25,0 8 4 S - 9
20.05.2019 20:00:00 28,2 25,2 11 6 ESE 1009,2 9
20.05.2019 19:00:00 29,0 25,0 5 3 S - 9
20.05.2019 18:00:00 31,0 25,0 13 7 SE - 8
20.05.2019 17:00:00 32,0 25,3 5 3 SSE 1007,6 10
20.05.2019 16:00:00 33,0 25,0 5 3 SSE - 10
20.05.2019 15:00:00 34,0 22,0 5 3 N - 10
20.05.2019 14:00:00 34,4 22,9 5 3 E 1009,0 10
20.05.2019 13:00:00 34,0 23,0 8 4 NNE - 10
20.05.2019 12:00:00 34,0 22,0 16 9 SE - 10
20.05.2019 11:00:00 32,5 23,3 4 2 ESE 1011,6 10
20.05.2019 10:00:00 - - - - - - -
20.05.2019 09:00:00 29,0 24,0 9 5 ENE - 10
20.05.2019 08:00:00 27,1 23,8 4 2 S 1011,5 10
20.05.2019 07:00:00 - - - - - - -
20.05.2019 06:00:00 - - - - - - -
20.05.2019 05:00:00 25,4 24,3 0 0 N 1010,2 9
20.05.2019 04:00:00 - - - - - - -
20.05.2019 03:00:00 25,0 25,0 13 7 ESE - 5
20.05.2019 02:00:00 26,6 24,1 13 7 ESE 1010,8 7
20.05.2019 01:00:00 25,0 25,0 9 5 E - 6
20.05.2019 00:00:00 26,0 25,0 8 4 ENE - 6
19.05.2019 23:00:00 27,4 24,1 0 0 N 1011,5 9
19.05.2019 22:00:00 27,0 25,0 9 5 ESE - 10
19.05.2019 21:00:00 28,0 24,0 5 3 ENE - 10
19.05.2019 20:00:00 - - - - - - -
19.05.2019 19:00:00 30,0 25,0 4 2 ESE - 10
19.05.2019 18:00:00 - - - - - - -
19.05.2019 17:00:00 31,4 23,9 8 4 SSW 1007,9 10
19.05.2019 16:00:00 33,0 24,0 9 5 S - 10
19.05.2019 15:00:00 33,0 24,0 5 3 SSW - 10
19.05.2019 14:00:00 33,1 22,6 5 3 SSW 1009,2 10
19.05.2019 13:00:00 34,0 22,0 9 5 S - 10
19.05.2019 12:00:00 32,0 22,0 8 4 ESE - 10
19.05.2019 11:00:00 31,2 23,2 9 5 SSE 1011,5 10
19.05.2019 10:00:00 30,0 24,0 9 5 E - 10
19.05.2019 09:00:00 29,0 24,0 5 3 NE - 10
19.05.2019 08:00:00 25,8 24,1 4 2 N 1011,3 9
19.05.2019 07:00:00 25,0 24,0 0 0 N - 10
19.05.2019 06:00:00 - - - - - - -
19.05.2019 05:00:00 25,4 23,7 0 0 N 1009,8 10
19.05.2019 04:00:00 - - - - - - -
19.05.2019 03:00:00 24,0 24,0 2 1 ENE - 10
19.05.2019 02:00:00 26,0 24,1 2 1 SSW 1011,0 10
19.05.2019 01:00:00 25,0 24,0 4 2 S - 10
19.05.2019 00:00:00 26,0 24,0 4 2 SSE - 10
18.05.2019 23:00:00 26,8 24,3 5 3 SSE 1011,8 10
18.05.2019 22:00:00 - - - - - - -
18.05.2019 21:00:00 28,0 24,0 9 5 SSE - 10
18.05.2019 20:00:00 29,0 24,1 0 0 N 1010,1 10
18.05.2019 19:00:00 30,0 24,0 5 3 SSE - 10
18.05.2019 18:00:00 32,0 23,0 4 2 ENE - 10
18.05.2019 17:00:00 33,6 22,2 8 4 NNE 1008,3 10
18.05.2019 16:00:00 - - - - - - -
18.05.2019 15:00:00 33,0 23,0 8 4 N - 10
18.05.2019 14:00:00 32,6 23,9 13 7 NNE 1009,6 10
18.05.2019 13:00:00 32,0 24,0 5 3 NW - 10
18.05.2019 12:00:00 31,0 25,0 5 3 NNE - 10
18.05.2019 11:00:00 30,2 24,8 8 4 NE 1012,3 10
18.05.2019 10:00:00 - - - - - - -
18.05.2019 09:00:00 27,0 25,0 11 6 NE - 10
18.05.2019 08:00:00 25,8 24,4 5 3 NNE 1011,7 9
18.05.2019 07:00:00 25,0 24,0 4 2 N - 6
18.05.2019 06:00:00 25,0 24,0 11 6 E - 5
18.05.2019 05:00:00 25,0 23,9 0 0 N 1010,4 4,0
18.05.2019 04:00:00 24,0 24,0 9 5 E - 8
18.05.2019 03:00:00 - - - - - - -
18.05.2019 02:00:00 26,0 24,4 0 0 N 1010,5 10
18.05.2019 01:00:00 - - - - - - -
18.05.2019 00:00:00 - - - - - - -
17.05.2019 23:00:00 26,4 24,2 11 6 ESE 1011,1 10
17.05.2019 22:00:00 27,0 25,0 11 6 ESE - 10
17.05.2019 21:00:00 27,0 25,0 11 6 ESE - 10
17.05.2019 20:00:00 27,6 24,9 5 3 SSE 1009,6 10
17.05.2019 19:00:00 28,0 25,0 11 6 ESE - 10
17.05.2019 18:00:00 - - - - - - -
17.05.2019 17:00:00 28,4 25,2 8 4 SE 1007,3 10
17.05.2019 16:00:00 25,0 23,0 15 8 NNE - 0,2
17.05.2019 15:00:00 32,0 25,0 9 5 WSW - 10
17.05.2019 14:00:00 33,2 22,7 8 4 S 1008,6 10
17.05.2019 13:00:00 32,0 23,0 9 5 SSE - 10
17.05.2019 12:00:00 32,0 24,0 5 3 SE - 10
17.05.2019 11:00:00 31,6 24,0 5 3 S 1011,6 10
17.05.2019 10:00:00 - - - - - - -
17.05.2019 09:00:00 - - - - - - -
17.05.2019 08:00:00 26,8 24,9 5 3 NE 1011,4 9
17.05.2019 07:00:00 25,0 25,0 4 2 NE - 4,0
17.05.2019 06:00:00 - - - - - - -
17.05.2019 05:00:00 25,1 24,4 0 0 N 1009,6 7
17.05.2019 04:00:00 25,0 25,0 9 5 ENE - 7
17.05.2019 03:00:00 - - - - - - -
17.05.2019 02:00:00 25,7 24,6 5 3 ENE 1009,9 7
17.05.2019 01:00:00 - - - - - - -
17.05.2019 00:00:00 - - - - - - -
16.05.2019 23:00:00 26,9 25,1 0 0 N 1011,2 8
16.05.2019 22:00:00 - - - - - - -
16.05.2019 21:00:00 - - - - - - -
16.05.2019 20:00:00 27,9 25,3 4 2 SW 1009,8 10
16.05.2019 19:00:00 - - - - - - -
16.05.2019 18:00:00 - - - - - - -
16.05.2019 17:00:00 29,8 25,8 13 7 ESE 1007,8 10
16.05.2019 16:00:00 30,0 26,0 5 3 S - 10
16.05.2019 15:00:00 - - - - - - -
16.05.2019 14:00:00 30,6 25,2 9 5 S 1008,5 10
16.05.2019 13:00:00 - - - - - - -
16.05.2019 12:00:00 32,0 25,0 5 3 WSW - 10
16.05.2019 11:00:00 31,4 25,2 4 2 E 1010,9 10
16.05.2019 10:00:00 30,0 25,0 5 3 ESE - 10
16.05.2019 09:00:00 29,0 25,0 8 4 ESE - 10
16.05.2019 08:00:00 27,2 25,3 15 8 ESE 1011,1 9
16.05.2019 07:00:00 26,0 25,0 5 3 ESE - 9
16.05.2019 06:00:00 - - - - - - -
16.05.2019 05:00:00 25,6 25,1 5 3 S 1009,5 8
16.05.2019 04:00:00 - - - - - - -
16.05.2019 03:00:00 - - - - - - -
16.05.2019 02:00:00 26,5 25,0 9 5 E 1010,0 9
16.05.2019 01:00:00 - - - - - - -
16.05.2019 00:00:00 - - - - - - -
15.05.2019 23:00:00 27,5 24,9 5 3 SSE 1010,9 9
15.05.2019 22:00:00 - - - - - - -
15.05.2019 21:00:00 - - - - - - -
15.05.2019 20:00:00 28,2 25,5 5 3 ESE 1009,5 9
15.05.2019 19:00:00 - - - - - - -

tt = temperature
td = dewpoint
ff = wind speed
dd = wind direction
ppp = reduced air pressure
vv = visibility

Next stations